Regional Weather Roundup
Issued by NWS

Home | Current Version | Previous Version | Text Only | Print | Product List | Glossary On
Versions: 1 2 3 4 5 6 7 8 9 10 11 12 13 14 15 16 17 18 19 20 21 22 23 24 25 26 27 28 29 30 31 32 33 34 35 36 37 38 39 40 41 42 43 44 45 46 47 48 49 50
000
ASUS43 KOAX 240310
RWRNE

WEATHER ROUNDUP FOR NEBRASKA
NATIONAL WEATHER SERVICE OMAHA NE
1000 PM CDT SAT MAY 23 2015

NOTES: SATELLITE DATA IS BEING USED TO AUGMENT CLOUD COVER ABOVE
       12000 FEET.
       "FAIR" INDICATES FEW OR NO CLOUDS BELOW 12,000 FEET WITH NO
       SIGNIFICANT WEATHER AND/OR OBSTRUCTIONS TO VISIBILITY.

  * THESE STATIONS DO NOT REPORT WEATHER SUCH AS RAIN...SNOW OR FOG.

NEZ001>004-019>022-054>056-240400-
NEBRASKA PANHANDLE

CITY           SKY/WX    TMP DP  RH WIND       PRES   REMARKS
SCOTTSBLUFF    CLOUDY    55  54  96 SE5       29.92S
ALLIANCE       CLOUDY    54  52  93 E15       29.95S
CHADRON        CLOUDY    54  52  93 NE10      29.96S
KIMBALL          N/A    N/A N/A N/A MISG        N/A
SIDNEY         RAIN      50  49  96 E9        29.96R FOG
$$

NEZ057>060-069>072-079>082-240400-
SOUTHWEST NEBRASKA

CITY           SKY/WX    TMP DP  RH WIND       PRES   REMARKS
NORTH PLATTE   CLOUDY    56  54  93 E15       29.96F
IMPERIAL       CLOUDY    57  54  89 E17       29.92F
LEXINGTON      LGT RAIN  58  57  95 E12       29.96F
MCCOOK         CLOUDY    58  55  90 E12       29.94R
OGALLALA       CLOUDY    55  54  97 E17       29.94S
$$

NEZ005>010-023>029-035>040-094-240400-
NORTH CENTRAL NEBRASKA

CITY           SKY/WX    TMP DP  RH WIND       PRES   REMARKS
VALENTINE      CLOUDY    55  54  96 E10       30.02F
AINSWORTH      RAIN      55  55  98 E10       30.03F
BROKEN BOW     LGT RAIN  57  55  93 E9        30.00F FOG
O`NEILL        CLOUDY    57  56  95 E9        30.05S
ORD            LGT RAIN  56  55  97 E7        30.01F FOG
THEDFORD       CLOUDY    55  54  95 E13G18    30.01S FOG
$$

NEZ041-046>049-061>064-073>077-083>087-240400-
SOUTH CENTRAL NEBRASKA

CITY           SKY/WX    TMP DP  RH WIND       PRES   REMARKS
GRAND ISLAND   CLOUDY    59  57  93 E9G18     30.00F
AURORA         CLOUDY    60  60  99 E13       29.99F
HASTINGS       CLOUDY    59  57  93 E10       29.99R
HEBRON         CLOUDY    60  57  91 E5        29.97R
HOLDREGE       LGT RAIN  57  55  95 E13       29.97S
KEARNEY *      CLOUDY    57  55  94 E10       29.98F
YORK           CLOUDY    59  59 100 E12       29.99F
$$

NEZ011>018-030>034-042>045-240400-
NORTHEAST NEBRASKA

CITY           SKY/WX    TMP DP  RH WIND       PRES   REMARKS
NORFOLK        LGT RAIN  59  57  93 E6        30.04R
ALBION         DRIZZLE   58  55  91 E8        30.03F
BLAIR          RAIN      61  58  90 E7        30.05S
COLUMBUS *     CLOUDY    59  54  82 E8        30.06S
FREMONT        CLOUDY    63  58  84 E9        30.04S
TEKAMAH        CLOUDY    63  58  83 E7        30.05S
WAYNE          RAIN      59  57  92 E6        30.06R
$$

NEZ050>053-065>068-078-088>093-240400-
SOUTHEAST NEBRASKA

CITY           SKY/WX    TMP DP  RH WIND       PRES   REMARKS
LINCOLN        CLOUDY    62  60  93 E9        29.99F
OMAHA EPPLEY   LGT RAIN  63  60  90 E5        30.04S
BEATRICE       CLOUDY    61  59  93 NE8       29.98S
FALLS CITY     LGT RAIN  62  60  93 E24       29.96F
NEBRASKA CITY  RAIN      62  61  99 E10       29.98F
PLATTSMOUTH    CLOUDY    61  59  91 E5        30.03S
$$

NEZ044-045-051>053-067-240400-
OMAHA AREA

CITY           SKY/WX    TMP DP  RH WIND       PRES   REMARKS
OMAHA EPPLEY   LGT RAIN  63  60  90 E5        30.04S
BLAIR          RAIN      61  58  90 E7        30.05S
FREMONT        CLOUDY    63  58  84 E9        30.04S
MILLARD        CLOUDY    63  60  90 CALM      30.03F
OFFUTT AFB     CLOUDY    62  60  91 E8        30.02F
PLATTSMOUTH    CLOUDY    61  59  91 E5        30.03S
WAHOO          CLOUDY    61  59  93 E10       30.02F
$$



USA.gov is the U.S. government's official web portal to all federal, state and local government web resources and services.